BM3JAS-9 Weather Reports


Display with metric or nautical units.
time (UTC)temp
F
wind
direction
speed
MPH
gust
MPH
rain 1hr
in
rain 24hr
in
rain mn
in
humidity
%
barometer
mb
20260504081759 77 0 0.0 0.0 0.00 0.00 0.00 60
20260504080759 77 0 0.0 0.0 0.00 0.00 0.00 61
20260504045759 82 0 0.0 0.0 0.00 0.00 0.00 59
20260504044759 83 0 0.0 0.0 0.00 0.00 0.00 60
20260504043800 83 0 0.0 0.0 0.00 0.00 0.00 58
20260504042759 84 0 0.0 0.0 0.00 0.00 0.00 60
20260504041759 83 0 0.0 0.0 0.00 0.00 0.00 61
20260504040759 81 0 0.0 0.0 0.00 0.00 0.00 61
20260504035759 80 0 0.0 0.0 0.00 0.00 0.00 61
20260504034759 80 0 0.0 0.0 0.00 0.00 0.00 59
20260504033759 79 0 0.0 0.0 0.00 0.00 0.00 59
20260504032759 79 0 0.0 0.0 0.00 0.00 0.00 60
20260504030759 78 0 0.0 0.0 0.00 0.00 0.00 62
20260504025759 77 0 0.0 0.0 0.00 0.00 0.00 61
20260504024759 77 0 0.0 0.0 0.00 0.00 0.00 62
20260504023759 78 0 0.0 0.0 0.00 0.00 0.00 63
20260504022759 77 0 0.0 0.0 0.00 0.00 0.00 64
20260504021800 77 0 0.0 0.0 0.00 0.00 0.00 66
20260504020800 76 0 0.0 0.0 0.00 0.00 0.00 67
20260504015800 75 0 0.0 0.0 0.00 0.00 0.00 67
20260504014800 75 0 0.0 0.0 0.00 0.00 0.00 67
20260504013800 75 0 0.0 0.0 0.00 0.00 0.00 66
20260504011800 74 0 0.0 0.0 0.00 0.00 0.00 65
20260504010800 74 0 0.0 0.0 0.00 0.00 0.00 66
20260504005800 74 0 0.0 0.0 0.00 0.00 0.00 66
20260504004800 74 0 0.0 0.0 0.00 0.00 0.00 68
20260504003800 74 0 0.0 0.0 0.00 0.00 0.00 69
20260504002800 74 0 0.0 0.0 0.00 0.00 0.00 70
20260504001759 74 0 0.0 0.0 0.00 0.00 0.00 70
20260504000800 74 0 0.0 0.0 0.00 0.00 0.00 70
20260503235800 74 0 0.0 0.0 0.00 0.00 0.00 70
20260503234800 74 0 0.0 0.0 0.00 0.00 0.00 70
20260503232800 74 0 0.0 0.0 0.00 0.00 0.00 71
20260503231800 74 0 0.0 0.0 0.00 0.00 0.00 71
20260503230800 74 0 0.0 0.0 0.00 0.00 0.00 72
20260503225800 74 0 0.0 0.0 0.00 0.00 0.00 72
20260503224800 74 0 0.0 0.0 0.00 0.00 0.00 72
20260503223800 74 0 0.0 0.0 0.00 0.00 0.00 72
20260503222800 74 0 0.0 0.0 0.00 0.00 0.00 72
20260503221800 74 0 0.0 0.0 0.00 0.00 0.00 72
20260503220800 74 0 0.0 0.0 0.00 0.00 0.00 72
20260503215800 73 0 0.0 0.0 0.00 0.00 0.00 72
20260503213800 74 0 0.0 0.0 0.00 0.00 0.00 71
20260503212800 74 0 0.0 0.0 0.00 0.00 0.00 71
20260503211800 74 0 0.0 0.0 0.00 0.00 0.00 71
20260503210800 74 0 0.0 0.0 0.00 0.00 0.00 70
20260503205800 75 0 0.0 0.0 0.00 0.00 0.00 70
20260503204800 75 0 0.0 0.0 0.00 0.00 0.00 70
20260503203800 75 0 0.0 0.0 0.00 0.00 0.00 69
20260503202800 75 0 0.0 0.0 0.00 0.00 0.00 69
20260503201800 75 0 0.0 0.0 0.00 0.00 0.00 68
20260503200800 76 0 0.0 0.0 0.00 0.00 0.00 67
20260503194800 76 0 0.0 0.0 0.00 0.00 0.00 67
20260503193800 76 0 0.0 0.0 0.00 0.00 0.00 68
20260503192800 76 0 0.0 0.0 0.00 0.00 0.00 66
20260503191800 76 0 0.0 0.0 0.00 0.00 0.00 64
20260503190800 77 0 0.0 0.0 0.00 0.00 0.00 63
20260503185800 77 0 0.0 0.0 0.00 0.00 0.00 64
20260503184800 77 0 0.0 0.0 0.00 0.00 0.00 65
20260503183800 77 0 0.0 0.0 0.00 0.00 0.00 67
20260503182800 77 0 0.0 0.0 0.00 0.00 0.00 68
20260503181800 77 0 0.0 0.0 0.00 0.00 0.00 68
20260503175800 77 0 0.0 0.0 0.00 0.00 0.00 69
20260503174800 77 0 0.0 0.0 0.00 0.00 0.00 69
20260503173800 77 0 0.0 0.0 0.00 0.00 0.00 69
20260503172800 77 0 0.0 0.0 0.00 0.00 0.00 70
20260503171800 77 0 0.0 0.0 0.00 0.00 0.00 71
20260503170800 77 0 0.0 0.0 0.00 0.00 0.00 71
20260503150800 78 0 0.0 0.0 0.00 0.00 0.00 77
20260503130800 80 0 0.0 0.0 0.00 0.00 0.00 79
20260503110800 80 0 0.0 0.0 0.00 0.00 0.00 79